METEOR 2-17 DEB, 38285

Orbit data source: Space-Track

METEOR 2-17 DEB, 38285 is space debris in LEO originally from a launch on Sat, 30 Jan 1988 UTC launched from the Plesetsk Missile And Space Complex (PKMTR). Debris objects in space refer to the collection of defunct objects orbiting the Earth. Examples of debris include non-operational satellites, rocket bodies, and fragments generated from explosions, collisions, or faulty payload assembly.

Loading next visibility...
Identifier
38285, 1988-005AN
Orbit
LEO
Country
Flag of CISCIS
Related business
Manufacturer
Unknown
Mission
Spacecraft
Bus & Motor
Unknown
Mass
Unknown
Launch date (UTC)
1988-01-30 (38 years ago)
Launch vehicle
Unknown
Launch site
Plesetsk Missile And Space Complex (PKMTR)
Object type
Payload
Rocket body
Debris
Shape & HBR
Unknown shape, 0.1 m
Radar Cross Section
Small (<0.1 m²)

Expand to show TLE details & history
Last TLE update: 1 day ago

TLE from 1 day ago
0 METEOR 2-17 DEB
1 38285U 88005AN  25306.18671251  .00003035  00000-0  21127-2 0  9990
2 38285  82.5445 112.5627 0014868 207.2985 152.7403 13.98375056179073
Epoch: 2025-11-02T04:28Z
TLE epoch observation values (Epoch: 2025-11-02T04:28:51.960Z)
Latitude
-0.00008°
Longitude
3.64014°
Altitude
911.973 km
Speed
7.391 km/s
True Right ascension
07h 30m 15s
True Declination
0° 00' 00"
Sunlit
Object was in daylight at epoch
Visualization orbit readout
Latitude
Unknown
Longitude
Unknown
Altitude
Unknown
Speed
Unknown
Apparent Right ascension
Unknown
Apparent Declination
Unknown
Sunlit
N/A
Visualization observer readout
Local Sidereal Time
00:01:04
Azimuth
Unknown
Elevation
Unknown
Doppler factor
Unknown
Orbital elements
Apogee altitude
907.376 km
Perigee altitude
885.744 km
Semi-major axis
7,274.697 km
Eccentricity
0.00149
Inclination
82.5445°
RAAN
112.5627°
Arg. of periapsis
207.2985°
True anomaly
152.81821°
Mean anomaly
152.7403°
Eccentric anomaly
152.77927°
Mean motion
3.49801 °/min
Orbital period
102.92 mins
BSTAR
0.0021127
Loading maneuver chart data...
Computing Atmospheric mass density...
Loading historical data...
Loading historical data...
Loading historical data...
Loading historical data...
Loading historical data...
Loading historical data...
Loading historical data...

Documentation

Showing up to 5 results
|